MDT,Max TemperatureF,Mean TemperatureF,Min TemperatureF,Max Dew PointF,MeanDew PointF,Min DewpointF,Max Humidity, Mean Humidity, Min Humidity, Max Sea Level PressureIn, Mean Sea Level PressureIn, Min Sea Level PressureIn, Max VisibilityMiles, Mean VisibilityMiles, Min VisibilityMiles, Max Wind SpeedMPH, Mean Wind SpeedMPH, Max Gust SpeedMPH,PrecipitationIn, CloudCover, Events, WindDirDegrees
2014-3-1,41,28,15,28,18,10,92,76,60,29.91,29.67,29.53,10,4,0,37,17,43,0.04,6,Fog-Rain-Snow,163
2014-3-2,40,31,22,29,24,19,88,74,59,30.06,29.94,29.74,10,10,10,18,10,21,0.00,2,,279
2014-3-3,46,39,31,26,23,20,78,59,39,29.96,29.90,29.82,10,10,10,35,19,41,0.00,1,,249
2014-3-4,41,34,27,30,27,23,92,73,54,30.04,29.90,29.75,10,6,0,26,12,31,0.03,7,Fog-Rain-Snow,267
2014-3-5,44,31,17,27,22,15,100,70,39,30.14,30.06,29.95,10,7,0,26,13,33,T,3,Fog-Snow,224
2014-3-6,54,43,32,24,19,15,59,42,24,29.95,29.82,29.67,10,10,10,37,19,47,0.00,1,,236
2014-3-7,40,30,19,29,26,18,100,80,59,30.23,29.95,29.68,10,6,0,17,9,22,0.05,7,Fog-Snow,10
2014-3-8,42,31,20,24,22,18,96,71,45,30.40,30.29,30.20,10,10,10,18,5,22,0.00,3,,230
2014-3-9,56,43,30,19,13,6,69,43,16,30.22,30.09,29.96,10,10,10,30,19,42,0.00,0,,237
2014-3-10,58,47,35,21,13,9,48,32,15,29.96,29.75,29.55,10,10,10,32,18,41,0.00,1,,239
2014-3-11,36,22,7,27,18,3,88,74,59,30.45,30.04,29.58,10,5,0,31,13,40,0.01,7,Fog-Snow,346
2014-3-12,38,20,2,19,9,-1,86,61,35,30.52,30.38,30.18,10,10,10,21,7,26,0.00,0,,188
2014-3-13,46,37,28,18,11,6,66,36,22,30.14,29.94,29.79,10,10,10,30,19,39,0.00,0,,254
2014-3-14,51,35,19,17,11,2,74,44,13,30.02,29.93,29.82,10,10,10,24,13,28,0.00,0,,237
2014-3-15,35,28,20,28,22,15,92,71,49,30.37,30.04,29.76,10,7,0,33,17,39,0.01,6,Fog-Snow,313
2014-3-16,50,34,17,20,16,13,84,55,26,30.35,30.17,29.88,10,10,10,36,14,44,0.00,1,,246
2014-3-17,54,39,23,29,17,12,78,50,22,29.80,29.49,29.21,10,10,3,41,22,52,T,3,Rain-Snow,244
2014-3-18,28,18,8,20,17,7,92,71,50,30.18,29.81,29.37,10,4,0,40,19,49,0.07,7,Fog-Snow,327
2014-3-19,35,21,7,17,11,4,91,66,40,30.20,30.14,30.04,10,10,10,31,15,37,0.00,0,,227
2014-3-20,49,37,24,17,11,4,46,35,23,30.02,29.89,29.74,10,10,10,35,15,41,0.00,0,,225
2014-3-21,37,29,21,18,15,10,84,61,38,30.09,29.98,29.78,10,10,10,30,14,37,0.00,1,,45
2014-3-22,26,21,15,19,16,13,92,80,68,30.31,30.09,29.95,10,8,2,35,14,40,T,7,Snow,136
2014-3-23,46,30,13,19,11,4,96,58,19,30.27,30.09,29.94,10,10,7,40,18,52,0.00,0,,235
2014-3-24,42,31,19,19,16,10,92,60,28,30.24,30.15,30.01,10,9,1,30,10,39,T,3,Snow,321
2014-3-25,57,38,19,22,16,8,92,53,14,30.22,29.95,29.62,10,10,9,30,11,35,0.00,0,,218
2014-3-26,55,40,25,32,23,11,100,61,22,29.62,29.43,29.29,10,8,0,35,12,42,0.01,4,Fog-Snow,223
2014-3-27,44,34,24,31,24,12,92,60,27,29.80,29.60,29.29,10,8,0,40,17,48,0.01,6,Fog-Snow,285
2014-3-28,42,32,22,20,15,10,75,53,30,30.17,29.99,29.79,10,10,10,35,20,45,0.00,2,,269
2014-3-29,54,40,26,17,14,11,49,36,22,30.09,29.94,29.78,10,10,10,40,20,49,0.00,1,,219
2014-3-30,58,44,29,33,22,14,92,56,20,29.78,29.56,29.38,10,8,0,45,20,57,0.03,3,Fog-Snow,213
2014-3-31,40,32,23,27,20,13,84,59,33,29.96,29.78,29.44,10,10,6,32,19,40,T,5,,303